[[{"header":{"parameterUnit":"m.s-1","parameterCategory":1,"la1":30.2991,"la2":30.254,"lo1":-89.0895,"lo2":-89.0444,"dy":0.0017,"dx":0.0017,"nx":28,"ny":28,"refTime":"2024-08-04T21:00:00:Z","depth":0,"parameterNumber":2,"parameterNumberName":"U-component_of_WINDS"},"data":[0,0,0,0,0,0,0,0,0,0,0,0,0,0,0,0,0,0,0,0,0,0,0,0,0,0,0,0,0,0,0,0,0,0,0,0,0,0,0,0,0,0,0,0,0,0,0,0,0,0,0,0,0,0,0,0,0,0,-5.0658,-5.066,0,-5.0852,-5.0854,-5.0856,-5.0835,-5.0832,-5.0829,-5.0826,-5.1009,-5.1017,-5.1024,0,0,0,0,0,0,0,0,0,0,0,0,0,-5.0252,-5.0259,-5.0657,-5.066,-5.0662,-5.0851,-5.0854,-5.0857,-5.0836,-5.0832,-5.0828,-5.0825,-5.1007,-5.1016,-5.1025,0,0,0,0,0,0,0,0,0,0,0,0,0,-5.0435,-5.0262,-5.0657,-5.0675,-5.0679,-5.0851,-5.0854,-5.0857,-5.0837,-5.0832,-5.0827,-5.0823,-5.1004,-5.1015,-5.1026,-5.1188,0,0,-5.1062,-5.1067,0,0,0,0,0,0,0,0,-5.0424,-5.045,-5.067,-5.0674,-5.0678,-5.0815,-5.0778,-5.0968,-5.0838,-5.0776,-5.0826,-5.0821,-5.0947,-5.0963,-5.1009,-5.1197,-5.1205,-5.1063,-5.107,-5.1075,-5.1078,0,0,0,0,0,0,0,-5.0412,-5.0441,-5.0734,-5.0673,-5.0678,-5.0668,-5.0689,-5.0814,-5.0884,-5.0781,-5.078,-5.0804,-5.0949,-5.0998,-5.1013,-5.1207,-5.1062,-5.1073,-5.108,-5.1084,-5.1534,-5.1539,0,0,0,0,0,0,-5.0397,-5.0431,-5.0728,-5.074,-5.0538,-5.0679,-5.0703,-5.0775,-5.0883,-5.0895,-5.0808,-5.0803,-5.0981,-5.1,-5.1019,-5.1214,-5.1074,-5.1085,-5.1092,-5.1529,-5.1535,-5.1541,0,0,0,0,0,0,-5.0388,-5.0424,-5.072,-5.0585,-5.0622,-5.0691,-5.0773,-5.0782,-5.0831,-5.0904,-5.0914,-5.0847,-5.0978,-5.1003,-5.1147,-5.122,-5.109,-5.1101,-5.1523,-5.1531,-5.1538,-5.1605,0,0,0,0,0,0,-5.0377,-5.0421,-5.0487,-5.0587,-5.063,-5.0849,-5.0778,-5.0789,-5.0853,-5.0848,-5.0943,-5.0954,-5.0976,-5.113,-5.1158,-5.1233,-5.111,-5.1517,-5.1527,-5.1535,-5.1597,-5.1614,-5.1629,0,0,0,0,0,-5.0362,-5.0495,-5.049,-5.0526,-5.0714,-5.0853,-5.0877,-5.0905,-5.0859,-5.0923,-5.0969,-5.0951,-5.1208,-5.1145,-5.1177,-5.1256,-5.1512,-5.1524,-5.1535,-5.1589,-5.1611,-5.1629,0,0,0,0,0,0,-5.0395,-5.0508,-5.0504,-5.0675,-5.0755,-5.085,-5.0931,-5.0927,-5.1018,-5.1008,-5.1034,-5.1055,-5.12,-5.1242,-5.117,-5.1417,-5.1353,-5.1371,-5.1384,-5.1405,-5.142,-5.1405,-5.112,0,0,0,0,0,-5.0424,-5.0533,-5.0623,-5.0764,-5.0806,-5.0862,-5.0923,-5.0938,-5.102,-5.1053,-5.1109,-5.1185,-5.1283,-5.1346,-5.1441,-5.1604,-5.1621,-5.1674,-5.169,-5.1703,-5.1717,-5.1803,-5.1826,-5.1578,-5.1578,-5.1577,0,0,-5.0481,-5.0556,-5.0622,-5.0773,-5.0837,-5.0944,-5.089,-5.1006,-5.1083,-5.1068,-5.1208,-5.1253,-5.1338,-5.1492,-5.1562,-5.1532,-5.179,-5.1717,-5.1727,-5.1734,-5.1817,-5.184,-5.1861,-5.1585,-5.1584,-5.1583,0,0,-5.0639,-5.0709,-5.0834,-5.09,-5.1,-5.1037,-5.1067,-5.1163,-5.1193,-5.1336,-5.1326,-5.1416,-5.1585,-5.1646,-5.1699,-5.1882,-5.1866,-5.1911,-5.1994,-5.2078,-5.2097,-5.2114,-5.2176,-5.2198,-5.1926,-5.1926,-5.1926,0,-5.0695,-5.0862,-5.0896,-5.1014,-5.1078,-5.1076,-5.1199,-5.126,-5.1383,-5.1425,-5.1391,-5.1603,-5.166,-5.1827,-5.1871,-5.1916,-5.1946,-5.1899,-5.2093,-5.211,-5.2127,-5.2185,-5.2209,-5.1931,-5.193,-5.193,-5.1929,0,-5.0924,-5.104,-5.1127,-5.1252,-5.1327,-5.1446,-5.1493,-5.1564,-5.1572,-5.1611,-5.1753,-5.1823,-5.1931,-5.1972,-5.1979,-5.2139,-5.2116,-5.2088,-5.2023,-5.2155,-5.221,-5.2233,-5.1937,-5.1936,-5.1934,-5.1933,0,0,-5.1106,-5.1251,-5.1282,-5.1338,-5.1449,-5.1536,-5.1653,-5.1764,-5.1821,-5.1906,-5.2002,-5.2145,-5.212,-5.218,-5.2194,-5.2268,-5.2404,-5.223,-5.2232,-5.2256,-5.2579,-5.2597,-5.2623,-5.2396,-5.24,-5.2404,-5.257,0,-5.1272,-5.1487,-5.1522,-5.1707,-5.1811,-5.1811,-5.1912,-5.1988,-5.2027,-5.2117,-5.2158,-5.2258,-5.2219,-5.2254,-5.2328,-5.2372,-5.2468,-5.2361,-5.2479,-5.2483,-5.2455,-5.2653,-5.2674,-5.2827,-5.2593,-5.2596,-5.2599,0,-5.1495,-5.1592,-5.1789,-5.1886,-5.193,-5.2022,-5.2125,-5.2213,-5.2297,-5.232,-5.2389,-5.2394,-5.251,-5.2444,-5.2601,-5.2528,-5.2578,-5.2607,-5.2613,-5.2622,-5.2546,-5.2663,-5.2877,-5.2899,-5.2634,-5.2631,-5.2629,0,-5.1603,-5.1783,-5.1924,-5.1972,-5.2089,-5.2152,-5.2202,-5.2283,-5.2347,-5.2435,-5.2476,-5.2575,-5.2628,-5.2702,-5.2732,-5.2682,-5.2886,-5.2823,-5.2903,-5.2902,-5.2943,-5.2939,-5.3164,-5.2982,-5.2981,-5.2981,-5.2981,0,-5.1783,-5.1903,-5.1974,-5.206,-5.2193,-5.223,-5.2358,-5.2406,-5.2478,-5.2569,-5.2573,-5.2657,-5.2694,-5.2782,-5.2806,-5.293,-5.2955,-5.2972,-5.2976,-5.2971,-5.2968,-5.3001,-5.2989,-5.2987,-5.2986,-5.2985,-5.2984,0,-5.1925,-5.1979,-5.2132,-5.2232,-5.2259,-5.2352,-5.2434,-5.2515,-5.2555,-5.267,-5.2698,-5.2759,-5.2863,-5.2902,-5.3027,-5.3043,-5.3186,-5.3183,-5.3159,-5.3159,-5.3236,-5.3227,-5.3487,-5.3521,-5.332,-5.3322,-5.3323,0,-5.2035,-5.2128,-5.2239,-5.2304,-5.2358,-5.2461,-5.2528,-5.2567,-5.2634,-5.2738,-5.2805,-5.291,-5.2996,-5.3162,-5.3213,-5.3308,-5.3305,-5.339,-5.3319,-5.3309,-5.3302,-5.3295,-5.3302,-5.3401,-5.3404,-5.3405,-5.3407,0,-5.2223,-5.2245,-5.2344,-5.2453,-5.2534,-5.2619,-5.2702,-5.2753,-5.2803,-5.2878,-5.2988,-5.3056,-5.3186,-5.3289,-5.3387,-5.3432,-5.3426,-5.343,-5.3452,-5.3445,-5.3426,-5.3434,-5.3191,-5.3422,-5.3421,-5.342,-5.3419,-5.3418,-5.2349,-5.2432,-5.2523,-5.2633,-5.2701,-5.2778,-5.2859,-5.2911,-5.3006,-5.3119,-5.3135,-5.3251,-5.333,-5.3462,-5.3512,-5.36,-5.3576,-5.361,-5.3618,-5.3625,-5.3629,-5.3416,-5.3618,-5.3618,-5.3617,-5.3617,-5.3617,0,-5.2534,-5.2594,-5.2695,-5.2814,-5.2899,-5.2894,-5.2985,-5.3054,-5.3159,-5.3236,-5.3323,-5.3447,-5.3547,-5.3607,-5.3706,-5.3764,-5.3764,-5.3789,-5.3782,-5.3792,-5.3646,-5.3615,-5.3787,-5.3787,-5.3787,-5.3787,-5.3787,-5.3787,-5.264,-5.2779,-5.2812,-5.2982,-5.3039,-5.3158,-5.321,-5.328,-5.3342,-5.3483,-5.3568,-5.3609,-5.3678,-5.3783,-5.3872,-5.3887,-5.3921,-5.3947,-5.3959,-5.3821,-5.3803,-5.3786,-5.3756,-5.3955,-5.3956,-5.4097,-5.4098,-5.4099]},{"header":{"parameterUnit":"m.s-1","parameterCategory":1,"la1":30.2991,"la2":30.254,"lo1":-89.0895,"lo2":-89.0444,"dy":0.0017,"dx":0.0017,"nx":28,"ny":28,"refTime":"2024-08-04T21:00:00:Z","depth":0,"parameterNumber":3,"parameterNumberName":"V-component_of_WINDS"},"data":[0,0,0,0,0,0,0,0,0,0,0,0,0,0,0,0,0,0,0,0,0,0,0,0,0,0,0,0,0,0,0,0,0,0,0,0,0,0,0,0,0,0,0,0,0,0,0,0,0,0,0,0,0,0,0,0,0,0,2.4549,2.4556,0,2.5226,2.5234,2.5242,2.556,2.556,2.5559,2.5559,2.6252,2.627,2.6289,0,0,0,0,0,0,0,0,0,0,0,0,0,2.353,2.3547,2.4548,2.4556,2.4565,2.5225,2.5234,2.5244,2.556,2.556,2.5559,2.5559,2.6246,2.6268,2.6291,0,0,0,0,0,0,0,0,0,0,0,0,0,2.4066,2.3553,2.4546,2.4802,2.4832,2.5223,2.5235,2.5246,2.556,2.556,2.5559,2.5558,2.6238,2.6266,2.6294,2.6481,0,0,2.638,2.6392,0,0,0,0,0,0,0,0,2.4035,2.4103,2.4756,2.4785,2.4819,2.5308,2.513,2.566,2.556,2.5284,2.5559,2.5558,2.5938,2.5991,2.612,2.6514,2.6543,2.6383,2.64,2.6412,2.642,0,0,0,0,0,0,0,2.3998,2.4076,2.4816,2.4765,2.4804,2.4884,2.496,2.5232,2.5606,2.5308,2.5332,2.5408,2.5955,2.6092,2.6138,2.6554,2.6382,2.6407,2.6424,2.6435,2.7141,2.7143,0,0,0,0,0,0,2.3919,2.4043,2.4795,2.4837,2.4418,2.4903,2.4988,2.5152,2.5604,2.5673,2.5408,2.5421,2.6044,2.6105,2.6164,2.6417,2.6412,2.6438,2.6454,2.7139,2.7141,2.7143,0,0,0,0,0,0,2.3896,2.3983,2.4768,2.4447,2.4553,2.4921,2.5103,2.5165,2.5302,2.568,2.5749,2.5479,2.6046,2.6124,2.6401,2.6445,2.6451,2.6477,2.7137,2.714,2.7142,2.692,0,0,0,0,0,0,2.3865,2.3973,2.4047,2.4446,2.4569,2.4992,2.5106,2.5179,2.535,2.5373,2.5764,2.5829,2.6051,2.6357,2.6429,2.6484,2.6499,2.7135,2.7138,2.7141,2.6926,2.6915,2.6906,0,0,0,0,0,2.3828,2.3956,2.4049,2.4138,2.4669,2.4994,2.5064,2.5318,2.5352,2.5431,2.5675,2.5816,2.6428,2.6383,2.6467,2.6531,2.7133,2.7137,2.7141,2.693,2.6917,2.6907,0,0,0,0,0,0,2.3551,2.4013,2.4121,2.4382,2.4646,2.5046,2.5153,2.5296,2.5555,2.5566,2.587,2.5955,2.6206,2.6397,2.6338,2.6739,2.6794,2.6815,2.6605,2.6596,2.6586,2.6536,2.6522,0,0,0,0,0,2.352,2.3744,2.4137,2.4329,2.4457,2.4781,2.4932,2.5105,2.5391,2.5504,2.5768,2.604,2.6296,2.6456,2.6711,2.6955,2.7047,2.7041,2.7031,2.7021,2.7036,2.7183,2.7186,2.7156,2.7156,2.7156,0,0,2.3458,2.3739,2.3862,2.4281,2.4506,2.4733,2.4873,2.5106,2.5279,2.554,2.5819,2.6021,2.6346,2.6608,2.6736,2.6774,2.7065,2.7026,2.7015,2.7037,2.7187,2.719,2.7192,2.7159,2.7159,2.7158,0,0,2.3464,2.3697,2.3885,2.4109,2.4449,2.4665,2.4709,2.509,2.5236,2.552,2.5722,2.5932,2.6363,2.6587,2.6757,2.6851,2.6992,2.6925,2.6875,2.7015,2.7018,2.7021,2.7057,2.7066,2.6939,2.6938,2.6938,0,2.3344,2.3694,2.3963,2.4188,2.4367,2.4616,2.481,2.5014,2.5418,2.5537,2.5574,2.6124,2.6359,2.6679,2.6702,2.6831,2.6894,2.6882,2.6995,2.7002,2.7009,2.7047,2.706,2.6928,2.6929,2.693,2.6931,0,2.3532,2.3772,2.3883,2.427,2.4463,2.4669,2.4972,2.5134,2.5291,2.5503,2.5792,2.6084,2.6404,2.6493,2.6648,2.6837,2.685,2.6937,2.6999,2.6997,2.7038,2.7055,2.6913,2.6917,2.692,2.6923,0,0,2.3379,2.3915,2.3951,2.4132,2.4527,2.4718,2.4938,2.5253,2.5387,2.5659,2.5853,2.6214,2.6299,2.6491,2.6674,2.6796,2.6856,2.6871,2.6883,2.6859,2.7086,2.7018,2.703,2.6952,2.6956,2.6959,2.7059,0,2.344,2.3845,2.4096,2.4401,2.4628,2.4869,2.5062,2.5326,2.5531,2.5754,2.5982,2.6234,2.6325,2.6443,2.6575,2.682,2.6906,2.6817,2.7137,2.7145,2.7049,2.7052,2.6981,2.7061,2.7077,2.708,2.7082,0,2.3564,2.3832,2.4159,2.4533,2.4638,2.4806,2.5117,2.5327,2.5632,2.5774,2.599,2.6176,2.642,2.6462,2.6804,2.6738,2.6884,2.7025,2.7034,2.7074,2.7113,2.7093,2.7093,2.7104,2.7109,2.7107,2.7105,0,2.3422,2.3864,2.4119,2.4265,2.4707,2.4821,2.501,2.5315,2.549,2.5761,2.5878,2.6173,2.6335,2.6561,2.6822,2.6828,2.7139,2.7202,2.7265,2.7258,2.7319,2.7312,2.7343,2.741,2.741,2.741,2.7409,0,2.3464,2.3655,2.4061,2.4217,2.444,2.4728,2.4941,2.5151,2.5421,2.5624,2.5851,2.6036,2.6369,2.6597,2.6803,2.7057,2.7127,2.7249,2.7302,2.723,2.7214,2.733,2.7332,2.7413,2.7413,2.7412,2.7411,0,2.3341,2.3621,2.3915,2.4311,2.4415,2.4561,2.4902,2.5064,2.5282,2.5536,2.5612,2.5955,2.6235,2.6518,2.6895,2.7034,2.7283,2.7354,2.718,2.7209,2.7257,2.7249,2.7364,2.7396,2.7437,2.7437,2.7436,0,2.335,2.3503,2.3916,2.4069,2.4253,2.4495,2.4676,2.4966,2.5144,2.5507,2.5626,2.5923,2.6176,2.6612,2.6895,2.7186,2.7267,2.7287,2.7311,2.7235,2.727,2.7257,2.7276,2.7276,2.7274,2.7273,2.7272,0,2.3336,2.3468,2.3718,2.4019,2.4227,2.4478,2.4736,2.4848,2.519,2.5379,2.5669,2.5865,2.6252,2.6545,2.687,2.7067,2.7227,2.7262,2.7293,2.7221,2.7114,2.7175,2.7154,2.7258,2.7259,2.726,2.7261,2.7262,2.3282,2.3431,2.3746,2.4018,2.4244,2.4482,2.4655,2.4896,2.5143,2.5481,2.5638,2.5929,2.6236,2.669,2.6884,2.7117,2.716,2.7203,2.7215,2.7221,2.7205,2.7076,2.7177,2.7178,2.7179,2.7179,2.718,0,2.3281,2.3497,2.3745,2.4101,2.4316,2.4449,2.4744,2.4915,2.5169,2.5441,2.5687,2.6022,2.6308,2.6615,2.692,2.7048,2.7129,2.7119,2.7112,2.7156,2.7148,2.7092,2.7048,2.7048,2.7048,2.7048,2.7048,2.7048,2.3306,2.3566,2.3736,2.4111,2.4328,2.4615,2.4772,2.4994,2.5214,2.5577,2.5817,2.6016,2.6304,2.6633,2.6902,2.6986,2.7088,2.7056,2.716,2.7146,2.7156,2.7165,2.7115,2.7076,2.7076,2.715,2.7151,2.7151]}]]